CUBESAT XI-IV (CO-57)

Last updated on Thu Oct 30 2025 00:03:10 GMT+0000 (Coordinated Universal Time)

1 27848U 03031J 25302.48401299 .00000424 00000+0 20570-3 0 9991 2 27848 98.6812 308.8519 0010054 147.7334 212.4461 14.23439474158553
UTC large
Height (km)
Speed (km/s)
/
Latitude / Longitude
Inclination (degrees)
Orbital Period (minutes)
Azimuth
Elevation
Range (km)
Doppler Factor

Next 0 passes for location: London (51.5072 / 0.1276)

Sorry there are no passes over London.